Location: Unspecified
(0.0000°N, 0.0000°E)
Time: 17:23:29
(UTC+00:00)

STARLINK 1062 - Pass Details

Date: 22 January 2020
Orbit: 548 x 551 km, 53.0° (Epoch: 22 January)

Event Time Altitude Azimuth Distance (km) Brightness Sun altitude
Rises 05:00:21 0° 219° (SW) 2,714 7.0 -16.7°
Reaches altitude 10° 05:02:36 10° 221° (SW) 1,818 6.1 -16.1°
Maximum altitude 05:06:42 66° 303° (WNW) 596 3.5 -15.2°
Drops below altitude 10° 05:10:47 10° 26° (NNE) 1,809 6.3 -14.2°
Sets 05:13:01 0° 29° (NNE) 2,698 7.3 -13.7°
